Location: Caltech
(34.1382°N, 118.1253°W)
Time: 03:47:39
(UTC-07:00)

HO-68 - Visible Passes

Search period start: 30 March 2017 00:00
Search period end: 09 April 2017 00:00
Orbit: 1192 x 1205 km, 100.1° (Epoch: 28 March)

Date Brightness Start Highest point End Pass type
(mag) Time Alt. Az. Time Alt. Az. Time Alt. Az.
30 Mar ? 20:11:17 10° S 20:18:15 56° WSW 20:25:16 10° NNW visible
31 Mar ? 19:54:10 10° S 20:01:18 75° WSW 20:08:29 10° NNW visible
01 Apr ? 19:37:15 10° SSE 19:44:24 84° ENE 19:51:35 10° NNW visible
01 Apr ? 21:29:20 10° WSW 21:32:46 14° W 21:36:12 10° WNW visible
02 Apr ? 21:10:42 10° SW 21:15:38 20° W 21:20:37 10° NW visible
03 Apr ? 20:52:42 10° SSW 20:58:34 27° W 21:04:28 10° NW visible
04 Apr ? 20:35:03 10° SSW 20:41:31 37° W 20:48:02 10° NNW visible
05 Apr ? 20:17:40 10° S 20:24:31 50° W 20:31:26 10° NNW visible
06 Apr ? 20:00:29 10° S 20:07:33 67° WSW 20:14:41 10° NNW visible
07 Apr ? 19:43:29 10° SSE 19:50:38 88° WSW 19:57:50 10° NNW visible
07 Apr ? 21:36:46 10° WSW 21:39:07 12° W 21:41:29 10° WNW visible
08 Apr ? 21:17:33 10° SW 21:21:58 17° W 21:26:25 10° NW visible
